Tracking 31027 objects as of 19-Jul-2025
HD Live streaming from Space Station
objects crossing your sky now

STARLINK-2452

Track STARLINK-2452 now!
10-day predictions
STARLINK-2452 is classified as:


NORAD ID: 48115
Int'l Code: 2021-027Z
Perigee: 553.4 km
Apogee: 555.3 km
Inclination: 53.1 °
Period: 95.6 minutes
Semi major axis: 6925 km
RCS: Unknown
Launch date: April 7, 2021
Source: United States (US)
Launch site: AIR FORCE EASTERN TEST RANGE (AFETR)
Your satellite tracking list
FREGAT DEB
Track 1 satellite(s)




NASA's NSSDC Master Catalog

Two Line Element Set (TLE):
1 48115U 21027Z   25199.54138091  .00001719  00000-0  13428-3 0  9997
2 48115  53.0537 132.7598 0001435 103.2205 256.8944 15.06401057237262
Source of the keplerian elements: AFSPC